#timestamp,LO_Frequency,Hit,StdDev 
1591671615.7,286046990.4,P
1591671635.5,286046990.2,Y
1591671655.4,286047001.1,P
1591671675.2,286046999.8,N
1591671695.1,286047001.6,N
1591671696.0,286047001.6,N
1591671715.8,286047003.0,N
1591671735.6,286047003.8,N
1591671755.5,286047003.1,N
1591671775.3,286047005.7,N
1591671795.1,286047001.8,N
1591671815.9,286047001.6,N
1591671835.7,286046998.7,N
1591671855.6,286047000.8,N
1591671875.4,286046999.0,N
1591671895.2,286046999.7,N
1591671915.1,286046998.3,N
1591671916.0,286046998.3,N
1591671935.8,286046998.3,N
1591671955.6,286047002.2,N
1591671975.5,286047000.3,N
1591671995.3,286046999.6,N
1591672015.1,286046999.2,N
1591672035.9,286047001.1,N
1591672055.7,286046998.9,N
1591672075.6,286046997.2,N
1591672095.4,286046997.1,N
1591672115.2,286047000.3,N
1591672135.1,286047002.7,N
1591672136.0,286047002.7,N
1591672155.8,286046999.9,N
1591672175.6,286046999.9,N
1591672195.5,286046999.8,N
1591672215.3,286047000.9,N
1591672235.2,286047002.0,N
1591672255.9,286047001.8,N
1591672275.8,286047004.0,N
1591672295.6,286047002.8,N
1591672315.4,286047001.2,N
1591672335.3,286047002.7,N
1591672355.1,286047001.3,N
1591672375.9,286046998.4,N
1591672395.7,286046998.1,N
1591672415.5,286046996.5,N
1591672435.4,286046997.8,N
1591672455.2,286046995.6,N
1591672475.0,286046996.2,N
1591672475.9,286046996.2,N
1591672495.8,286046994.0,N
1591672515.6,286046994.2,N
1591672535.5,286046998.4,N
1591672555.3,286046999.5,N
1591672575.1,286046997.9,N
1591672595.9,286046997.4,N
1591672615.7,286046999.2,N
1591672635.5,286046997.9,N
1591672655.4,286047001.2,N
1591672675.2,286046998.8,N
1591672695.1,286046993.4,N
1591672696.0,286046993.4,N
1591672715.8,286046996.2,N
1591672735.7,286046993.3,N
1591672755.5,286046995.0,N
1591672775.3,286046992.1,N
1591672795.2,286046993.5,N
1591672815.0,286046995.2,N
1591672815.9,286046995.2,N
1591672835.7,286046993.6,N
1591672855.6,286046994.8,N
1591672875.4,286046996.9,N
1591672895.3,286046992.3,Y
1591672915.1,286046995.5,P
1591672916.0,286046995.5,P
1591672935.8,286046992.2,P
1591672955.7,286046991.7,Y
1591672975.5,286046999.2,P
1591672995.4,286046997.4,N
1591673015.2,286046995.8,N
1591673035.0,286046995.1,Y
1591673035.9,286046995.1,P
1591673055.8,286046998.9,N
1591673075.6,286046998.8,N
1591673095.4,286047003.7,N
1591673115.3,286047001.5,N
1591673135.1,286047002.0,N
1591673155.9,286047001.3,N
1591673175.7,286047001.8,N
1591673195.5,286047002.0,N
1591673215.4,286047003.1,N
1591673235.2,286047005.1,N
1591673255.0,286047009.2,Y
1591673255.9,286047009.2,P
1591673275.8,286047004.6,N
1591673295.6,286047008.4,N
1591673315.5,286047008.0,N
1591673335.3,286047011.6,Y
1591673355.1,286047005.4,P
1591673375.9,286047004.7,P
1591673395.7,286047008.3,P
1591673415.6,286047008.1,Y
1591673435.4,286047004.4,P
1591673455.2,286047006.7,P
1591673475.1,286047007.4,P
1591673476.0,286047007.4,Y
1591673495.8,286047002.7,P
1591673515.6,286047002.7,N
1591673535.5,286047002.7,N
1591673555.3,286047003.8,N
1591673575.2,286047005.2,Y
1591673595.9,286047004.0,P
1591673615.7,286047005.6,P
1591673635.6,286047007.1,P
1591673655.4,286047008.8,Y
1591673675.2,286047006.7,P
1591673695.1,286047010.4,P
1591673696.0,286047010.4,P
1591673715.8,286047008.1,Y
1591673735.7,286047002.8,P
1591673755.5,286047000.0,N
1591673775.3,286047000.2,N
1591673795.2,286046997.0,N
1591673815.0,286046997.4,N
1591673815.9,286046997.4,N
1591673835.8,286046996.3,N
1591673855.6,286046996.4,N
1591673875.4,286046994.0,N
1591673895.3,286046994.3,N
1591673915.1,286046993.3,N
1591673935.8,286046991.8,N
1591673955.7,286046994.7,N
1591673975.5,286046992.6,N
1591673995.4,286046985.5,Y
1591674015.2,286046989.6,P
1591674035.0,286046987.6,P
1591674035.9,286046987.6,P
1591674055.8,286046983.7,Y
1591674075.6,286046995.8,P
1591674095.4,286046992.7,N
1591674115.3,286046991.3,P
1591674135.1,286046992.6,Y
1591674155.9,286046998.0,P
1591674175.7,286046996.1,N
1591674195.5,286046995.4,N
1591674215.4,286046991.1,Y
1591674235.2,286046990.5,P
1591674255.1,286046992.8,N
1591674256.0,286046992.8,P
1591674275.8,286046988.9,Y
1591674295.6,286046991.9,P
1591674315.5,286046990.3,P
1591674335.3,286046992.4,P
1591674355.1,286046992.3,Y
1591674375.9,286047002.4,P
1591674395.7,286046996.5,N
1591674415.6,286046999.2,N
1591674435.4,286046998.8,N
1591674455.2,286046998.8,N
1591674475.1,286046999.3,N
1591674476.0,286046999.3,N
1591674495.8,286046995.2,N
1591674515.7,286046995.1,N
1591674535.5,286046993.8,N
1591674555.3,286046991.9,N
1591674575.2,286046989.3,Y
1591674595.0,286046985.4,P
1591674595.9,286046985.4,N
1591674615.7,286046984.8,N
1591674635.6,286046985.1,N
1591674655.4,286046985.0,Y
1591674675.3,286046995.5,P
1591674695.1,286047001.2,N
1591674715.8,286047004.0,N
1591674735.7,286047004.8,N
1591674755.5,286047006.3,N
1591674775.3,286047004.9,N
1591674795.2,286047009.2,N
1591674815.0,286047005.1,N
1591674815.9,286047005.1,N
1591674835.8,286047005.1,N
1591674855.6,286047006.2,N
1591674875.4,286047008.6,N
1591674895.3,286047007.4,N
1591674915.1,286047005.6,N
1591674935.8,286047008.6,N
1591674955.7,286047006.6,N
1591674975.5,286047006.3,N
1591674995.4,286047010.2,N
1591675015.2,286047012.4,N
1591675035.0,286047007.5,N
1591675035.9,286047007.5,N
1591675055.8,286047008.9,N
1591675075.6,286047008.0,N
1591675095.4,286047008.5,N
1591675115.3,286047008.0,N
1591675135.1,286047008.0,N
1591675155.9,286047010.0,N
1591675175.7,286047011.3,N
1591675195.5,286047009.9,N
